Location: Mitty Observatory
(35.9148°N, 88.8847°W)
Time: 05:05:42
(UTC-06:00)

LightSail 2 - Pass Details

Date: 26 January 2021
Orbit: 688 x 705 km, 24.0° (Epoch: 09 March)

Event Time Altitude Azimuth Distance (km) Brightness Sun altitude
Exits shadow 04:22:28 14° 159° (SSE) 1,890 7.5 -31.9°
Drops below altitude 10° 04:24:28 10° 136° (SE) 2,122 8.1 -31.5°
Sets 04:28:01 0° 111° (ESE) 3,038 9.4 -30.8°
